{"data":{"norad_id":67746,"intl_designator":"2026-027A","name":"2026-027A","alt_names":[],"object_type":"PAYLOAD","status":"ACTIVE","operator":null,"country":"PRC","launch_date":"2026-02-12","launch_site_code":"SCSLA","launch_vehicle":null,"mission":null,"orbit_class":"UNKNOWN","rcs_meters":null,"size_class":null,"mass_kg":null,"dimensions":null,"purposes":[],"wikipedia_slug":null,"has_3d_model":false,"image_url":null,"decayed_at":null,"tle_current":{"epoch":"2026-09-20T14:54:00.274464Z","epoch_age_seconds":79432,"freshness":"FRESH","line1":"1 67746U 26027A   26263.62083651  .00004598  00000+0  21598-3 0  9990","line2":"2 67746  97.5176  31.3202 0008514 236.9183 123.1235 15.20094839 33451","mean_motion":15.20094839,"eccentricity":0.0008514,"inclination_deg":97.5176,"raan_deg":31.3202,"arg_perigee_deg":236.9183,"mean_anomaly_deg":123.1235,"bstar":0.00021598,"rev_number":3345,"period_min":94.730931456047,"perigee_km":499.69350757686,"apogee_km":511.41505709242,"semimajor_km":6883.6912823346,"source":"CELESTRAK","updated_at":"2026-09-21T09:00:16.824062Z"}}}